Location: Moydans
(44.3997°N, 5.5038°E)
Time: 10:30:44
(UTC+02:00)

Envisat - Pass Details

Date: 28 September 2021
Orbit: 764 x 766 km, 98.2° (Epoch: 25 October)

Event Time Altitude Azimuth Distance (km) Brightness Sun altitude
Rises 05:46:04 0° 26° (NNE) 3,239 6.9 -19.5°
Reaches altitude 10° 05:48:54 10° 42° (NE) 2,307 6.3 -19.1°
Maximum altitude 05:52:47 22° 92° (E) 1,632 5.5 -18.4°
Drops below altitude 10° 05:56:39 10° 142° (SE) 2,293 5.7 -17.7°
Sets 05:59:27 0° 158° (SSE) 3,214 6.3 -17.3°
